Regional Weather Roundup
Issued by NWS

Home | Current Version | Previous Version | Text Only | Print | Product List | Glossary Off
Versions: 1 2 3 4 5 6 7 8 9 10 11 12 13 14 15 16 17 18 19 20 21 22 23 24 25 26 27 28 29 30 31 32 33 34 35 36 37 38 39 40 41 42 43 44 45 46 47 48 49 50

432
ASUS43 KDMX 051308
RWRIA

WEATHER ROUNDUP FOR IOWA
NATIONAL WEATHER SERVICE DES MOINES IA
700 AM CST FRI FEB 05 2016

NOTE: "FAIR" INDICATES FEW OR NO CLOUDS BELOW 12,000 FEET WITH NO
SIGNIFICANT WEATHER AND/OR OBSTRUCTIONS TO VISIBILITY.

* - THESE STATIONS ARE NOT NWS STATIONS...THUS NOT UNDER NWS
QUALITY CONTROL.  THEY ALSO DO NOT REPORT WEATHER SUCH
AS PRECIPITATION OR FOG.

IAZ001>003-012>014-020>022-031>034-043>046-051400-
   NORTHWEST IOWA

CITY           SKY/WX    TMP DP  RH WIND       PRES   REMARKS
CARROLL *      CLEAR      7   5  92 S3        30.34R
CHEROKEE *     CLOUDY     3   1  92 CALM      30.31S
DENISON *      PTCLDY    10   9  92 CALM      30.31S
LE MARS *      PTCLDY    12  12 100 S5        30.30S WCI   4
ORANGE CITY *  MOCLDY    14  12  92 CALM      30.27S
SHELDON *      CLEAR     10   9  92 S7        30.26S WCI   0
SIOUX CITY     CLOUDY    11   6  81 E9        30.31S WCI  -2
SPENCER        CLOUDY     6   0  76 SE5       30.29S WCI  -3
STORM LAKE *   CLEAR     14  14 100 S9        30.29F WCI   2
$$

IAZ055>058-069>071-079>083-090>094-051400-
   SOUTHWEST IOWA

CITY           SKY/WX    TMP DP  RH WIND       PRES   REMARKS
ATLANTIC *     PTCLDY    10   7  85 CALM      30.36R
AUDUBON *      PTCLDY     3   0  85 CALM      30.34R FOG
CLARINDA *     CLEAR     21  21 100 CALM      30.40R
COUNCIL BLFS * CLOUDY    19  18  93 S8        30.35R WCI   9
CRESTON *      CLEAR     18  16  93 SE3       30.37R
HARLAN  *      MOCLDY     9   7  92 CALM      30.38R FOG
LAMONI         CLOUDY    19  15  84 CALM      30.37R
RED OAK *      CLOUDY    19  19 100 CALM      30.37S
SHENANDOAH *   CLEAR     23  23 100 CALM      30.39R
$$

IAZ047>049-059>061-072>074-084-051400-
   CENTRAL IOWA

CITY           SKY/WX    TMP DP  RH WIND       PRES   REMARKS
AMES           PTCLDY    10   7  87 CALM      30.38R
ANKENY *       CLEAR     12  12 100 CALM      30.39R
BOONE *        CLEAR     10   7  85 CALM      30.35S FOG
CHARITON *     MOCLDY    18  16  93 CALM      30.38R
DES MOINES     CLOUDY    15  10  80 W3        30.39R
GRINNELL*      PTCLDY    12  10  92 CALM      30.38R
KNOXVILLE *    PTCLDY    16  12  86 CALM      30.38R
MARSHALLTOWN   CLOUDY     8   5  87 W3        30.37R
NEWTON *       CLEAR     14  14 100 CALM      30.38R
PELLA *        CLOUDY    16  14  93 CALM      30.41R
$$

IAZ004>006-015-016-023>025-035-036-051400-
   NORTH CENTRAL IOWA

CITY           SKY/WX    TMP DP  RH WIND       PRES   REMARKS
ALGONA *       CLEAR      7   5  92 SE6       30.32S WCI  -3
CLARION *      CLOUDY     5   1  85 S5        30.36R WCI  -4
ESTHERVILLE    CLOUDY     5   2  87 S7        30.29S WCI  -7
FORT DODGE *   CLOUDY     5   1  85 CALM      30.35S
MASON CITY     CLOUDY     5   2  87 CALM      30.35S
FOREST CITY *  CLOUDY     1   0  92 CALM      30.33R
WEBSTER CITY * PTCLDY     3  -2  78 SE3       30.35R
IOWA FALLS *     N/A      7   3  85 CALM      30.37R FOG
$$

IAZ007>011-017>019-026>030-037>042-050>054-066-051400-
   NORTHEAST IOWA

CITY           SKY/WX    TMP DP  RH WIND       PRES   REMARKS
CEDAR RAPIDS   CLOUDY    14  12  92 NW6       30.37R WCI   5
CHARLES CITY * PTCLDY     3   1  92 NW3       30.36R
CLINTON *      CLOUDY    25  20  81 NW6       30.38R WCI  18
DECORAH *      CLEAR      9   5  85 CALM      30.34R
DUBUQUE        CLOUDY    19  15  84 N6        30.34R WCI  11
MONTICELLO *   CLEAR     16  12  86 CALM      30.37R
OELWEIN *      PTCLDY     7   5  92 CALM      30.36R
WATERLOO       PTCLDY     2  -1  88 CALM      30.38R
$$

IAZ064-065-067-068-078-051400-
   EAST CENTRAL IOWA

CITY           SKY/WX    TMP DP  RH WIND       PRES   REMARKS
DAVENPORT      CLOUDY    25  18  74 N9        30.38R WCI  15
IOWA CITY      PTCLDY    17  13  84 W5        30.41R WCI  10
MT. PLEASANT * PTCLDY    21  19  93 CALM      30.40R
MUSCATINE *    PTCLDY    19  16  86 NW6       30.41R WCI  11
QUAD CITIES    CLOUDY    26  18  71 NW9       30.38R WCI  17
$$

IAZ062-063-075>077-085>089-095>099-051400-
   SOUTHEAST IOWA

CITY           SKY/WX    TMP DP  RH WIND       PRES   REMARKS
BURLINGTON     CLOUDY    21  18  88 W3        30.39R
FAIRFIELD *    CLEAR     18  14  86 NW3       30.40R
FORT MADISON * CLEAR     19  18  93 W3        30.40R
KEOKUK *       CLEAR     21  19  93 CALM      30.40R
OSKALOOSA *      N/A     16  14  93 CALM      30.40R
CENTERVILLE *    N/A    N/A N/A N/A MISG        N/A
OTTUMWA        CLOUDY    17  15  92 W3        30.39R
WASHINGTON *   CLEAR     18  16  93 NW5       30.41R WCI  11
$$

ABBREVIATIONS USED IN REMARKS
   TC - TEMPERATURES IN CELSIUS
  WCI - WIND CHILL INDEX
   HX - HEAT INDEX
  VSB - VISIBILITY
$$





USA.gov is the U.S. government's official web portal to all federal, state and local government web resources and services.